Tracking 19224 objects as of 22-Jul-2018
HD Live streaming from Space Station
objects crossing your sky now

TISAT 1

Track TISAT 1 now!
10-day predictions
TISAT 1 is classified as:


NORAD ID: 36799
Int'l Code: 2010-035E
Perigee: 592.8 km
Apogee: 612.1 km
Inclination: 98.1 °
Period: 96.6 minutes
Semi major axis: 6973 km
RCS: 0.056 m2 (small)
Launch date: July 12, 2010
Source: (SWTZ)
Launch site: SRIHARIKOTA (SRI)
Uplink (MHz): 145.980
Downlink (MHz): 437.305
Beacon (MHz): 145.980
Mode: FM AFSK PSK CW
Call sign: HB9DE
Status: Inactive

aabbcc
Your satellite tracking list
Your tracking list is empty




NASA's NSSDC Master Catalog

Two Line Element Set (TLE):
1 36799U 10035E   18203.42022857  .00000236  00000-0  30057-4 0  9997
2 36799  98.1108 340.5792 0013785  93.2776 267.0019 14.90838066435407
Source of the keplerian elements: Caltech